OBJECT LG

Last updated on May 17, 2017, 12:15 a.m. UTC

1 42697U 98067LG  17136.32868340  .00024799  00000-0  37271-3 0  9994
2 42697  51.6400 197.0665 0003919 157.1383 202.9674 15.54705356  1709

Satellite is not in orbit.